Printer-friendly version

IAU Minor Planet Center

Minor Planet Center

MPEC 2005-O03 : 2005 NP82

The following Minor Planet Electronic Circular may be linked-to from your own Web pages, but must not otherwise be redistributed electronically.


Read MPEC 2005-O02 Read MPEC 2005-O04


M.P.E.C. 2005-O03                                Issued 2005 July 17, 11:47 UT

     The Minor Planet Electronic Circulars contain information on unusual
         minor planets and routine data on comets.  They are published
   on behalf of Commission 20 of the International Astronomical Union by the
          Minor Planet Center, Smithsonian Astrophysical Observatory,
                          Cambridge, MA 02138, U.S.A.

                  Supported in part by the Brinson Foundation
             Prepared using the Tamkin Foundation Computer Network

                              MPC@CFA.HARVARD.EDU
          URL http://cfa-www.harvard.edu/iau/mpc.html  ISSN 1523-6714

                                   2005 NP82

Observations:
     K05N82P* C2005 07 06.65554 20 30 41.79 -27 41 20.2          18.8 V EO003E12
     K05N82P  C2005 07 06.67176 20 30 40.06 -27 41 36.5          19.0 V EO003E12
     K05N82P  C2005 07 06.68791 20 30 38.34 -27 41 52.4          18.7 V EO003E12
     K05N82P  C2005 07 06.70405 20 30 36.61 -27 42 07.7          19.0 V EO003E12
     K05N82P 1C2005 07 06.72442 20 30 34.40 -27 42 28.2          19.0 R EO003413
     K05N82P 1C2005 07 06.72518 20 30 34.33 -27 42 28.8          19.0 R EO003413
     K05N82P 1C2005 07 06.72595 20 30 34.24 -27 42 29.7          19.1 R EO003413
     K05N82P 1C2005 07 06.82018 20 30 24.16 -27 44 01.7          19.1 R EO003413
     K05N82P  C2005 07 07.17999 20 29 46.04 -27 49 58.0          19.1 R EO003I77
     K05N82P  C2005 07 07.18412 20 29 45.59 -27 50 01.2          19.3 R EO003I77
     K05N82P  C2005 07 07.19238 20 29 44.73 -27 50 08.9          19.2 R EO003I77
     K05N82P  C2005 07 07.31000 20 29 32.11 -27 52 06.2          19.2 R EO003854
     K05N82P  C2005 07 07.31292 20 29 31.82 -27 52 09.9          19.1 R EO003734
     K05N82P  C2005 07 07.31440 20 29 31.62 -27 52 10.2          18.9 R EO003734
     K05N82P  C2005 07 07.31588 20 29 31.49 -27 52 12.8          18.9 R EO003734
     K05N82P  C2005 07 07.31735 20 29 31.40 -27 52 15.2          19.2 R EO003854
     K05N82P  C2005 07 07.31736 20 29 31.35 -27 52 13.0          18.7 R EO003734
     K05N82P  C2005 07 07.32468 20 29 30.56 -27 52 20.7          19.2 R EO003854
     K05N82P  C2005 07 08.27656 20 27 47.87 -28 07 56.2          20.4 R EO003448
     K05N82P  C2005 07 08.28508 20 27 47.01 -28 08 05.1          18.9 R EO003448
     K05N82P  C2005 07 08.29569 20 27 45.85 -28 08 14.8          19.4 R EO003448
     K05N82P 5C2005 07 08.33958 20 27 41.04 -28 08 56.7          19.7 R EO003673
     K05N82P 5C2005 07 08.34317 20 27 40.63 -28 09 00.0                 EO003673
     K05N82P 5C2005 07 08.34792 20 27 40.13 -28 09 05.1                 EO003673
     K05N82P 5C2005 07 08.35359 20 27 39.52 -28 09 10.5                 EO003673
     K05N82P  C2005 07 09.07214 20 26 20.93 -28 20 52.5          18.9 R EO003I77
     K05N82P  C2005 07 09.07627 20 26 20.44 -28 20 57.0          19.3 R EO003I77
     K05N82P  C2005 07 09.07938 20 26 20.08 -28 21 00.9          19.6 R EO003I77
     K05N82P 5C2005 07 09.34780 20 25 50.49 -28 25 26.4          19.6 R EO003673
     K05N82P 5C2005 07 09.35139 20 25 50.16 -28 25 29.1                 EO003673
     K05N82P 5C2005 07 09.35648 20 25 49.48 -28 25 35.1                 EO003673
     K05N82P 5C2005 07 09.36319 20 25 48.79 -28 25 40.7                 EO003673
     K05N82P  C2005 07 09.53230 20 25 30.12 -28 28 23.8          19.1 V EO003428
     K05N82P  C2005 07 09.59014 20 25 23.68 -28 29 20.8          19.0 V EO003428
     K05N82P  C2005 07 09.65341 20 25 16.55 -28 30 23.2          18.9 V EO003428
     K05N82P  C2005 07 09.74303 20 25 06.42 -28 31 51.8          18.8 V EO003428
     K05N82P  C2005 07 10.22927 20 24 12.63 -28 39 49.3          19.3 R EO003651
     K05N82P  C2005 07 10.23038 20 24 12.37 -28 39 49.6          19.3 R EO003651
     K05N82P  C2005 07 10.28892 20 24 05.76 -28 40 47.6          18.9 R EO003734
     K05N82P  C2005 07 10.30035 20 24 04.45 -28 40 59.0          19.2 R EO003734
     K05N82P  C2005 07 10.31179 20 24 03.21 -28 41 09.8          20.3 R EO003734
     K05N82P  C2005 07 10.31751 20 24 02.60 -28 41 15.4          19.2 R EO003734
     K05N82P  C2005 07 10.32363 20 24 01.86 -28 41 21.8          19.4 R EO003734
     K05N82P  C2005 07 10.32935 20 24 01.22 -28 41 27.6          18.9 R EO003734
     K05N82P 5C2005 07 10.37072 20 23 56.55 -28 42 06.4          19.5 R EO003673
     K05N82P 5C2005 07 10.37951 20 23 55.65 -28 42 15.3                 EO003673
     K05N82P 5C2005 07 10.39699 20 23 53.68 -28 42 33.1                 EO003673
     K05N82P 5C2005 07 10.40440 20 23 52.81 -28 42 40.2                 EO003673
     K05N82P  C2005 07 10.48983 20 23 43.37 -28 44 01.5          19.0 V EO003428
     K05N82P  C2005 07 10.49231 20 23 43.03 -28 44 03.6          18.9 V EO003428
     K05N82P  C2005 07 10.51087 20 23 40.92 -28 44 21.2          19.1 V EO003428
     K05N82P  C2005 07 10.51338 20 23 40.62 -28 44 24.2          19.2 V EO003428
     K05N82P 5C2005 07 11.30324 20 22 11.41 -28 57 17.0          19.6 R EO003673
     K05N82P 5C2005 07 11.30752 20 22 10.89 -28 57 22.6                 EO003673
     K05N82P 5C2005 07 11.31354 20 22 10.15 -28 57 28.7                 EO003673
     K05N82P  C2005 07 11.31600 20 22 09.91 -28 57 31.2          18.4 R EO003734
     K05N82P  C2005 07 11.31895 20 22 09.70 -28 57 32.7          18.8 R EO003734
     K05N82P  C2005 07 11.32189 20 22 09.23 -28 57 35.9          19.2 R EO003734
     K05N82P  C2005 07 11.52113 20 21 46.71 -29 00 47.3          19.0 V EO003E12
     K05N82P  C2005 07 11.53323 20 21 45.27 -29 00 59.1          19.2 V EO003E12
     K05N82P 5C2005 07 12.35972 20 20 10.50 -29 14 26.3          19.0 R EO003673
     K05N82P 5C2005 07 12.36412 20 20 09.99 -29 14 30.5                 EO003673
     K05N82P 5C2005 07 12.37014 20 20 09.30 -29 14 36.6                 EO003673
     K05N82P 5C2005 07 12.37245 20 20 09.04 -29 14 38.7                 EO003673
     K05N82P 5C2005 07 12.38056 20 20 08.10 -29 14 46.4                 EO003673
     K05N82P 5C2005 07 12.38287 20 20 07.81 -29 14 48.9                 EO003673
     K05N82P  C2005 07 13.01673 20 18 54.69 -29 25 00.7          19.0 R EO003I77
     K05N82P  C2005 07 13.02096 20 18 54.20 -29 25 05.2          19.1 R EO003I77
     K05N82P  C2005 07 13.02939 20 18 53.16 -29 25 12.9          18.9 R EO003I77
     K05N82P 5C2005 07 13.35903 20 18 14.74 -29 30 34.4          19.0 R EO003673
     K05N82P 5C2005 07 13.36250 20 18 14.31 -29 30 38.0                 EO003673
     K05N82P 5C2005 07 13.37500 20 18 12.72 -29 30 50.6                 EO003673
     K05N82P 5C2005 07 13.37847 20 18 12.40 -29 30 52.9                 EO003673
     K05N82P 5C2005 07 13.38681 20 18 11.46 -29 31 01.6                 EO003673
     K05N82P 5C2005 07 13.39375 20 18 10.59 -29 31 08.9                 EO003673
     K05N82P  C2005 07 15.05529 20 14 54.86 -29 57 47.4          18.9 R EO003J87
     K05N82P  C2005 07 15.05991 20 14 54.29 -29 57 52.2          18.9 R EO003J87
     K05N82P  C2005 07 15.06454 20 14 53.72 -29 57 56.9          18.8 R EO003J87
     K05N82P 5C2005 07 15.29560 20 14 26.27 -30 01 37.0          19.5 R EO003673
     K05N82P 5C2005 07 15.30220 20 14 25.47 -30 01 43.6                 EO003673
     K05N82P 5C2005 07 15.31053 20 14 24.51 -30 01 51.1                 EO003673
     K05N82P 5C2005 07 15.31748 20 14 23.64 -30 01 58.1                 EO003673
     K05N82P  C2005 07 15.98090 20 13 04.25 -30 12 31.2          19.0 R EO003J87
     K05N82P  C2005 07 15.98475 20 13 03.79 -30 12 34.6          19.0 R EO003J87
     K05N82P  C2005 07 15.98861 20 13 03.33 -30 12 38.0          19.5 R EO003J87
     K05N82P  C2005 07 16.51625 20 11 59.78 -30 20 56.4          18.4 V EO003E12
     K05N82P  C2005 07 16.52072 20 11 59.31 -30 21 00.5          18.6 V EO003E12
     K05N82P  C2005 07 16.52528 20 11 58.70 -30 21 04.7          18.7 V EO003E12
     K05N82P  C2005 07 16.52983 20 11 58.16 -30 21 09.1          18.8 V EO003E12
     K05N82P  C2005 07 16.60019 20 11 49.44 -30 22 15.7          18.6 V EO003428
     K05N82P  C2005 07 16.60339 20 11 49.12 -30 22 19.2          18.8 V EO003428
     K05N82P  C2005 07 16.67727 20 11 40.04 -30 23 29.6          19.1 V EO003428
     K05N82P  C2005 07 16.68074 20 11 39.59 -30 23 32.4          18.9 V EO003428
     K05N82P 5C2005 07 17.29039 20 10 25.84 -30 33 11.1          19.4 R EO003673
     K05N82P 5C2005 07 17.30382 20 10 24.25 -30 33 23.6                 EO003673
     K05N82P 5C2005 07 17.31667 20 10 22.64 -30 33 35.4                 EO003673
     K05N82P  C2005 07 17.31792 20 10 22.39 -30 33 37.6          18.2 R EO003734
     K05N82P  C2005 07 17.32160 20 10 22.04 -30 33 40.5          19.1 R EO003734
     K05N82P  C2005 07 17.32454 20 10 21.62 -30 33 43.8          18.9 R EO003734
     K05N82P  C2005 07 17.32748 20 10 21.24 -30 33 45.8          19.0 R EO003734
     K05N82P 5C2005 07 17.32766 20 10 21.29 -30 33 46.2                 EO003673

Observer details:
413 Siding Spring.  Observer R. H. McNaught.  1.0-m f/8 reflector + CCD.
428 Reedy Creek.  Observer J. Broughton.  0.51-m f/2.7 reflector + CCD.
448 Desert Moon Observatory.  Observer B. L. Stevens.  0.3-m
    Schmidt-Cassegrain + CCD.
651 Grasslands Observatory, Tucson.  Observer J. E. McGaha.  0.62-m f/5.1
    Newtonian reflector + CCD.
673 Table Mountain Observatory, Wrightwood.  Observers J. Young, D. Mayes.
    0.6-m reflector + CCD.
734 Farpoint Observatory.  Observers G. Hug, J. Burgardt.  Measurers G. Hug,
    B. Martin.  0.7-m reflector + CCD.
854 Sabino Canyon Observatory, Tucson.  Observer J. E. McGaha.  0.36-m f/10.0
    Schmidt-Cassegrain + CCD.
E12 Siding Spring Survey.  Observers G. J. Garradd, E. J. Christensen.
    Measurers E. C. Beshore, C. M. Casey, E. J. Christensen, G. J. Garradd,
    A. D. Grauer, R. E. Hill, S. M. Larson, R. H. McNaught.  0.5-m Uppsala
    Schmidt + CCD.
I77 CEAMIG-REA Observatory, Belo Horizonte.  Observers C. Jacques, E. Pimentel.
    Measurer C. Jacques.  0.30-m f/3.0 Schmidt-Cassegrain + CCD.
J87 La Canada.  Observer J. Lacruz.  0.30-m Schmidt-Cassegrain + CCD.

Orbital elements:
2005 NP82
Epoch 2005 July 9.0 TT = JDT 2453560.5                  MPC
M 337.72495              (2000.0)            P               Q
n   0.06636411     Peri.  253.18714     -0.35930717     -0.68849508
a   6.0419972      Node   123.72013     -0.25067878     +0.72145496
e   0.4900761      Incl.  130.76405     -0.89892075     +0.07400849
P  14.9            H   13.9           G   0.15
From 100 observations 2005 July 6-17.

Ephemeris:
2005 NP82                a,e,i = 6.04, 0.49, 131                 q = 3.0810
Date    TT    R. A. (2000) Decl.     Delta      r     Elong.  Phase     V
2005 07 09    20 26.48   -28 19.7    2.810    3.791   162.4     4.7    19.4
2005 07 19    20 06.93   -30 59.8    2.752    3.756   169.4     2.8    19.3
2005 07 29    19 45.66   -33 25.5    2.742    3.721   161.9     4.9    19.4
2005 08 08    19 24.03   -35 27.6    2.779    3.687   149.2     8.1    19.5
2005 08 18    19 03.56   -37 02.2    2.856    3.653   136.0    11.1    19.7
2005 08 28    18 45.49   -38 11.1    2.967    3.620   123.2    13.5    19.8
2005 09 07    18 30.58   -38 59.4    3.102    3.587   110.9    15.2    20.0
2005 09 17    18 19.11   -39 33.6    3.251    3.555    99.3    16.2    20.1
2005 09 27    18 10.99   -39 59.4    3.407    3.524    88.4    16.5    20.2
2005 10 07    18 05.91   -40 21.3    3.562    3.493    78.0    16.3    20.3
2005 10 17    18 03.49   -40 42.3    3.709    3.463    68.1    15.5    20.3

Timothy B. Spahr             (C) Copyright 2005 MPC           M.P.E.C. 2005-O03

Read MPEC 2005-O02 Read MPEC 2005-O04


Our Web policy. Index to the CBAT/MPC/ICQ pages.


Valid HTML 4.01!